Find Starlink 30393

NORAD ID: 57866 Int'l Des: 2023-144 Owner: SPXS Country: US Constellation: starlink operational
LEOCIRCULAR

Live Position

Loading 3D Globe...

About Starlink 30393

Description loading...

Upcoming Passes

Passes for default location (London). Set your location on the main map for personalized predictions.

Altitude History

Loading altitude history...

Two-Line Element Set

1 57866U 23144C 26125.53198425 .00001213 00000-0 53571-4 0 9991
2 57866 43.0023 323.9346 0000431 247.4650 112.6156 15.27592294146292
Epoch: May 5, 2026 • Age: 14 hours

Current Status

Altitude 492.3 km
Velocity 7.62 km/s
Sub-Earth Point -34.04°S, 72.31°W
Launch Date Sep 16, 2023
Age 2.6 years
Type internet

Technical Details

Classification Payload
Mass 730.00 kg
Dry Mass 700.00 kg
Total Mass 730.00 kg
Length 0.30 m
Diameter 4.10 m
Span 29.00 m
Shape Box + pan
Manufacturer SPXS
Bus Type Starlink V2M
Phase Status In Orbit
Owner/State SPXS/US

Most Searched